Showing default

OPS 6582 (TRANSIT 5E-5), 959

Orbit data source: Space-Track

OPS 6582 (TRANSIT 5E-5), 959 is a payload satellite owned by USN BuWeps (US) in LEO that was launched on Sun, 13 Dec 1964 UTC via a THOR ABLESTAR launch vehicle from the Air Force Western Test Range (AFWTR). Payload-class satellites include a variety of spacecraft equipped with specific instruments for various scientific and technological missions. These include communications satellites like Starlink; space stations such as the ISS; scientific satellites like the Hubble; Earth observation satellites from companies like Planet Labs, Umbra, and HawkEye 360; GPS; miniature CubeSats for education and research; and military/defense satellites.

Loading next visibility...
Identifier
959, 1964-083C
Orbit
LEO
Country
Flag of USUS
Related business
Manufacturer
APL
Mission
Spacecraft
Bus & Motor
TRANSIT 5, Unknown motor
Mass
77 kg wet, 77 kg dry
Launch date (UTC)
1964-12-13 (61 years ago)
Launch vehicle
THOR ABLESTAR
Launch site
Air Force Western Test Range (AFWTR)
Object type
Payload
Rocket body
Debris
Shape & HBR
Unknown
Radar Cross Section
Large (>1 m²)

Expand to show TLE details & history
Last TLE update: 13 hours ago

TLE from 13 hours ago
0 OPS 6582 (TRANSIT 5E-5)
1   959U 64083C   25302.22630176  .00000221  00000-0  27127-3 0  9990
2   959  90.0073 187.1072 0040163 265.7456 207.9765 13.62403517 18769
Epoch: 2025-10-29T05:25Z
TLE epoch observation values (Epoch: 2025-10-29T05:25:52.472Z)
Latitude
66.57146°
Longitude
-112.14715°
Altitude
1,064.868 km
Speed
7.313 km/s
True Right ascension
00h 28m 29s
True Declination
66° 27' 03"
Sunlit
Object was in full shadow at epoch
Visualization orbit readout
Latitude
Unknown
Longitude
Unknown
Altitude
Unknown
Speed
Unknown
Apparent Right ascension
Unknown
Apparent Declination
Unknown
Sunlit
N/A
Visualization observer readout
Local Sidereal Time
13:40:59
Azimuth
Unknown
Elevation
Unknown
Doppler factor
Unknown
Orbital elements
Apogee altitude
1,053.731 km
Perigee altitude
994.272 km
Semi-major axis
7,402.139 km
Eccentricity
0.00402
Inclination
90.0073°
RAAN
187.1072°
Arg. of periapsis
265.7456°
True anomaly
207.76155°
Mean anomaly
207.9765°
Eccentric anomaly
207.86893°
Mean motion
3.40806 °/min
Orbital period
105.63 mins
BSTAR
0.00027127
Loading maneuver chart data...
Computing Atmospheric mass density...

Documentation

Showing up to 5 results
|